loading
|

STARLINK-11194, 60187

Orbit data source: Space-Track

STARLINK-11194, 60187 is a payload satellite owned by SpaceX/Seattle (US) in LEO that was launched on Wed, 03 Jul 2024 UTC via an FALCON 9 launch vehicle from the Air Force Eastern Test Range (AFETR). Payloads include a variety of satellites, spacecraft, and rockets equipped with specific instruments for various scientific and technological missions. These include communications satellites like Starlink; space stations such as the ISS; scientific satellites like the Hubble; Earth observation satellites from companies like Planet Labs, Umbra, and HawkEye 360; GPS; miniature CubeSats for education and research; and military/defense satellites.

Loading next visibility...
Loading greatness...
STARLINK-11194 details
Identifier
60187, 2024-124E
Orbit
LEO
Last TLE update15 hours ago
Origin
Flag of USSpaceX/Seattle (US)
ManufacturerSpaceX/Seattle
Mission statusOperational
MissionUnknown
Bus & MotorSTARLINK V2M, Unknown motor
Mass750 kg wet, ~700 kg dry
Launch date (UTC)
2024-07-03 (3 months ago)
Launch vehicle
FALCON 9
Launch site
Air Force Eastern Test Range (AFETR)
Object type
Payload
Rocket body
Debris
Radar Cross SectionLarge (>1 m²)

Expand to show TLE details & history

TLE from 15 hours ago
0 STARLINK-11194
1 60187U 24124E   24261.33598813  .00189202  00000-0  15302-2 0  9995
2 60187  53.1557 294.8433 0001107 118.2975 241.8154 15.69725542 11985
Epoch: 2024-09-17T08:03Z
Definitive object data (Epoch: 2024-09-17T08:03:49.374Z)
Latitude-0.00007°
Longitude177.13541°
Altitude360.949 km
Speed7.694 km/s
True Right ascension19h 39m 22s
True Declination0° 00' 00"
Sunlit
Object was in full shadow at TLE epoch
Predictive object data (real-time)
Latitude10.58501°
Longitude-178.01245°
Altitude359.387 km
Speed7.696 km/s
Apparent Right ascension23h 03m 32s
Apparent Declination-26° 39' 56"
Sunlit
Object is in full shadow
Predictive observer data (real-time)
Local Sidereal Time16:12:59
Azimuth104.082° ESE
Elevation-25.972°
Doppler factor1
Orbital elements
Apogee360.69 km
Perigee359.198 km
Semi-major axis6,738.081 km
Eccentricity0.0001107
Inclination53.1557°
RAAN294.8433°
Arg. of periapsis118.2975°
True anomaly241.80422°
Mean anomaly241.8154°
Eccentric anomaly241.80981°
Mean motion3.92409 °/min
BSTAR0.0015302
Period91.74 mins
No data available

STARLINK-11194 Visibility forecast

Observer location: 39.9160978°, -105.1181434

STARLINK-11194 is not visible in the next 10 days
Span
Click to sort rows by Start time (UTC) header in descending order
Start Az.
Max El. time (UTC)
Max El. Az.
Max El.
End time (UTC)
End Az.